Probability
12 11 9 9 10 13 13 10 5 2 1 2 3 3 4 4 6 9 9 4 1 0 0 0 0 0 0 0 0 1 2 2 3 3 4 4 5 6
15 14 13 12 12 12 12 10 9 6 3 4 7 7 6 5 5 7 8 6 3 2 1 0 0 0 0 0 0 0 1 1 2 3 3 4 4 4
20 19 17 15 14 12 11 11 11 10 7 8 12 14 11 8 6 6 7 9 8 4 1 0 0 0 0 0 0 0 0 0 1 1 2 2 2 1
22 21 19 17 15 13 12 11 11 11 11 13 16 19 17 14 11 9 9 11 10 5 1 0 0 0 0 0 0 0 0 0 0 0 1 1 1 0
21 20 19 18 16 15 14 13 13 13 15 16 19 21 21 20 18 14 13 15 12 6 2 1 0 0 0 0 0 0 0 0 0 0 0 0 0 0
18 17 16 16 15 14 14 15 14 15 16 19 21 22 22 24 23 19 17 16 14 11 7 5 4 2 1 0 0 0 0 0 0 0 0 0 0 0
18 17 15 14 13 12 11 12 13 14 16 20 23 23 24 26 25 23 20 18 16 14 13 11 9 6 5 4 2 0 0 0 0 0 0 0 0 0
19 17 14 13 12 8 6 5 7 10 13 18 22 23 25 27 27 24 21 18 17 16 15 14 13 12 11 8 3 0 0 0 0 0 0 0 0 0
20 17 14 12 11 8 6 4 5 7 10 16 20 20 22 25 26 24 22 21 21 21 18 15 15 16 14 9 3 0 0 0 0 0 0 0 0 0
20 19 18 14 11 9 9 10 11 10 10 13 15 15 17 19 20 23 24 24 24 23 20 17 15 15 14 10 4 0 0 0 0 0 0 0 0 0
20 21 20 15 10 8 10 14 16 15 12 11 9 8 9 10 13 18 22 22 22 21 20 16 13 12 13 11 6 2 0 0 0 0 0 0 0 0
20 20 16 11 7 6 9 13 16 15 14 13 9 6 6 6 9 15 17 18 19 20 18 15 13 11 12 10 7 4 2 1 1 0 0 0 0 0
19 18 14 7 4 4 6 10 12 13 14 14 12 11 10 10 12 15 16 16 18 18 17 15 13 13 13 11 7 6 5 4 3 1 1 0 0 0
17 16 11 5 1 1 3 5 7 9 10 11 11 12 12 13 13 14 15 15 15 16 15 13 13 13 14 12 9 8 7 6 5 5 4 3 1 1
12 10 6 2 0 0 1 2 4 8 11 11 10 10 11 12 13 13 14 14 14 13 12 10 9 10 11 11 10 8 7 7 7 8 9 8 5 5
7 6 4 2 2 2 2 3 5 10 12 13 12 11 10 11 12 13 13 13 12 12 10 7 6 7 8 8 8 8 7 8 9 10 11 10 9 10
6 7 7 5 5 5 5 5 7 10 12 12 12 11 10 10 11 12 13 12 12 12 11 9 7 6 7 6 6 7 8 9 9 8 9 9 10 11
5 8 8 7 6 6 6 6 7 9 10 10 11 11 10 10 10 12 12 11 12 13 14 13 10 8 7 6 5 6 7 8 8 7 7 7 8 9
6 8 8 6 5 6 6 6 7 7 8 9 9 10 10 9 10 11 11 11 11 12 12 11 8 7 6 6 5 5 6 7 7 6 6 6 6 6
6 7 7 6 5 5 5 6 6 6 7 7 8 9 10 9 9 9 10 10 10 10 10 8 6 5 5 7 6 5 4 6 7 6 6 6 5 4
4 5 5 6 6 5 4 5 6 7 7 6 7 8 9 9 9 9 9 9 9 9 8 7 5 4 4 6 5 5 4 4 5 5 4 3 3 2
3 4 4 5 6 5 4 4 5 7 7 6 7 7 9 9 9 9 8 8 8 8 8 7 5 4 4 3 2 2 3 3 3 3 2 1 1 0
3 4 4 5 6 6 4 4 4 5 6 6 6 7 8 9 9 8 8 8 7 7 7 6 5 4 3 2 1 0 1 3 3 3 3 1 0 0
Wind_Speed
5 5 5 4 4 4 4 5 5 5 4 4 4 4 4 4 3 5 5 6 8 8 8 9 9 9 9 8 8 7 7 7 7 6 6 6 7 6
4 5 5 4 4 4 5 5 5 6 5 4 4 3 3 3 4 5 5 7 9 9 8 8 9 9 9 8 8 8 7 6 6 6 6 6 6 6
5 5 6 5 4 4 4 4 5 5 6 5 4 3 4 5 3 5 6 6 6 10 9 7 7 8 8 8 8 7 7 6 6 6 6 6 6 6
6 6 6 5 6 6 5 6 5 6 7 7 5 4 5 6 5 6 5 5 4 8 10 8 8 8 8 8 8 7 7 6 6 6 6 6 6 6
6 6 6 6 6 5 6 6 5 6 6 6 6 4 5 5 5 5 5 4 5 5 9 9 9 9 8 8 8 8 7 7 6 6 5 5 5 6
6 6 6 6 7 6 6 6 6 6 6 6 6 5 5 4 5 5 4 4 4 4 4 5 8 10 9 9 9 8 8 7 7 6 6 5 5 5
7 7 7 6 6 6 6 5 6 6 6 6 6 6 5 4 5 5 4 4 4 4 4 4 6 6 7 9 9 9 8 8 8 7 7 6 6 6
7 6 7 7 7 7 7 7 7 7 7 6 6 6 6 6 5 5 4 5 4 3 4 4 4 4 5 5 8 10 9 9 9 9 8 7 7 6
6 6 6 5 6 7 7 8 8 9 9 8 9 8 7 6 5 6 6 6 5 4 4 5 4 5 5 4 8 10 10 10 9 9 9 8 8 7
7 7 7 6 5 6 7 7 7 7 8 8 7 8 7 5 6 7 7 7 6 5 5 5 4 4 4 3 8 10 9 9 9 9 9 9 8 8
7 7 7 7 4 5 7 7 7 6 5 5 6 5 4 5 5 5 5 6 6 5 4 4 4 4 4 4 6 11 10 9 9 9 9 9 9 9
6 6 6 6 4 4 7 7 7 6 5 4 5 6 6 6 7 7 6 6 5 4 4 4 4 3 4 4 4 5 7 8 9 9 9 9 8 7
5 5 4 4 4 5 7 7 6 6 6 6 5 5 5 5 5 6 5 6 6 5 4 4 4 4 4 4 4 4 5 5 6 7 9 9 9 8
5 4 2 2 4 6 6 5 5 6 5 5 4 4 4 4 4 4 5 5 6 6 5 5 5 5 5 5 5 4 5 5 5 5 6 9 10 10
3 3 2 4 5 6 7 7 7 6 5 5 5 4 4 3 4 4 5 5 6 6 6 7 7 6 6 6 5 5 4 4 5 5 5 6 7 7
4 2 4 5 6 4 4 5 5 4 4 5 4 4 4 4 4 4 4 5 5 5 5 7 7 8 7 7 5 5 5 5 5 5 5 6 6 7
3 3 3 2 3 3 3 3 3 3 4 4 4 4 4 4 4 4 4 5 5 5 5 5 5 5 6 6 6 5 5 5 5 5 5 6 6 6
3 3 2 3 3 3 3 3 3 3 3 4 4 4 4 5 4 4 5 5 6 6 5 4 4 4 4 4 5 7 6 6 5 6 6 6 7 6
3 2 2 2 2 3 3 3 3 3 3 4 4 4 4 4 4 5 5 5 6 6 5 4 5 5 6 6 5 6 7 5 6 6 6 7 7 6
2 2 2 2 3 3 3 3 3 3 3 4 4 4 4 5 5 5 5 5 5 5 5 5 5 6 6 6 5 5 8 7 6 6 6 6 5 3
2 2 2 3 3 3 3 3 3 3 4 4 4 4 4 4 5 5 5 5 6 6 6 5 4 4 4 4 5 5 5 7 6 6 6 6 6 6
3 3 3 3 3 3 3 3 4 4 4 4 4 4 4 4 5 6 5 5 5 5 5 4 4 4 4 6 6 5 5 5 6 7 7 6 6 6
3 3 3 3 3 3 3 4 5 4 4 4 4 4 4 4 4 4 5 4 4 4 5 4 4 4 5 6 6 5 5 5 5 6 6 6 7 6
Wind_Direction
236 229 239 239 240 243 245 251 261 268 258 230 233 220 231 232 194 219 225 189 198 207 210 211 209 208 208 211 214 218 221 225 225 223 216 214 217 217
241 245 247 246 242 244 244 245 251 262 268 259 248 234 244 251 203 233 231 188 198 204 208 209 208 206 205 207 211 213 211 210 210 210 209 208 209 210
239 234 238 254 252 246 241 243 246 250 259 265 261 240 233 254 238 244 238 228 208 193 199 201 204 207 205 203 204 205 205 206 209 211 209 206 205 209
241 241 239 234 239 252 249 246 247 247 252 262 262 246 236 239 240 244 244 235 237 173 182 192 197 200 201 200 200 202 202 202 203 206 205 203 205 209
242 241 242 241 242 243 247 250 250 245 246 252 256 250 247 237 234 235 241 237 241 175 173 187 193 195 196 196 197 199 199 199 199 201 204 203 203 206
244 244 245 241 243 246 246 248 253 253 246 249 251 246 242 230 228 234 232 222 230 220 192 185 181 190 195 196 198 199 198 198 199 200 200 204 204 203
240 240 242 246 258 259 263 258 254 254 253 246 246 244 240 229 233 238 238 235 225 217 213 207 193 201 197 199 201 200 199 199 199 200 202 206 209 206
241 239 237 229 235 236 252 263 268 263 263 258 252 249 244 240 242 245 240 237 240 203 222 231 219 218 214 207 184 190 199 201 201 200 200 203 207 207
247 246 250 240 234 241 233 231 242 251 255 260 259 257 254 247 244 242 239 242 247 226 216 236 225 226 223 197 170 182 192 196 197 196 197 199 201 202
246 244 248 253 250 258 258 251 246 241 239 243 256 262 261 257 245 244 244 244 246 230 220 239 235 235 229 205 168 177 187 192 195 195 196 197 197 199
248 247 249 250 249 258 254 254 255 251 233 232 250 257 267 261 249 246 239 240 243 233 215 234 241 245 240 224 181 176 184 191 195 198 201 204 204 203
246 241 238 251 250 245 250 253 255 256 257 238 230 235 240 233 222 231 238 239 246 245 212 218 235 240 244 230 211 193 196 196 199 200 203 207 210 217
255 249 231 210 233 235 250 254 256 263 252 245 241 237 232 232 226 224 233 242 247 249 223 214 237 237 243 248 237 219 210 207 200 200 201 202 205 217
262 265 249 197 234 240 244 251 249 255 247 242 243 244 245 244 240 239 238 245 251 254 246 237 244 236 243 249 247 230 221 219 218 215 208 192 199 209
276 305 279 221 223 226 227 232 232 238 242 241 242 248 250 247 246 238 235 231 237 244 240 237 241 239 242 246 244 236 234 231 225 223 216 209 204 200
264 255 228 228 233 239 230 225 235 249 256 253 256 255 249 240 235 235 237 235 237 237 232 234 238 242 246 245 241 237 232 228 226 228 225 219 215 211
272 257 255 250 246 247 248 254 255 244 243 249 250 251 247 240 239 240 240 239 242 243 235 223 227 231 243 246 238 234 231 232 228 224 230 230 223 219
276 266 270 268 266 266 262 257 253 255 257 256 251 249 251 250 245 243 244 243 244 245 242 230 218 223 236 243 247 240 236 235 230 222 228 232 231 222
262 283 284 281 275 271 271 271 272 270 268 261 258 256 255 254 250 244 241 245 247 248 246 235 228 229 237 244 230 227 238 233 229 228 228 231 234 227
279 287 284 282 279 278 278 277 275 273 267 263 259 258 255 255 253 249 244 247 252 249 245 241 238 239 248 259 257 238 221 231 230 231 233 236 238 228
321 313 309 302 297 294 292 285 281 279 275 269 264 264 261 260 261 263 259 245 247 248 248 250 257 255 260 260 248 242 227 214 232 235 232 232 231 227
329 324 322 315 310 309 309 300 291 283 279 274 274 272 269 265 264 265 265 262 256 255 259 262 256 247 241 245 248 244 241 225 218 223 233 238 239 235
324 324 328 323 319 312 310 304 299 301 299 293 288 286 283 276 272 267 264 260 262 263 265 263 258 251 249 249 252 250 241 236 228 220 225 216 213 220